Regional Weather Roundup
Issued by NWS

Home | Current Version | Previous Version | Text Only | Print | Product List | Glossary Off
Versions: 1 2 3 4 5 6 7 8 9 10 11 12 13 14 15 16 17 18 19 20 21 22 23 24 25 26 27 28 29 30 31 32 33 34 35 36 37 38 39 40 41 42 43 44 45 46 47 48 49 50

094
ASUS43 KIND 261959
RWRIN

WEATHER ROUNDUP FOR INDIANA
NATIONAL WEATHER SERVICE INDIANAPOLIS IN
400 PM EDT SUN MAR 26 2017

NOTE: "FAIR" INDICATES FEW OR NO CLOUDS BELOW 12,000 FEET WITH NO
SIGNIFICANT WEATHER AND/OR OBSTRUCTIONS TO VISIBILITY.

* - STATION DOES NOT REPORT WEATHER SUCH AS PRECIPITATION OR FOG.

+ - STATION NOT QUALITY CONTROLLED BY THE NATIONAL WEATHER SERVICE.
    USE DATA WITH CAUTION...ESPECIALLY DEWPOINT AND RELATIVE
    HUMIDITY OBSERVATIONS.

INZ001>003-010>013-019-020-262100-
NORTHWEST INDIANA

CITY           SKY/WX    TMP DP  RH WIND       PRES   REMARKS
GARY /AIRPORT/ CLOUDY    63  52  67 SW14      29.82S
MONTICELLO +   LGT RAIN  58  54  85 W12       29.84S

$$

LMZ046-743>745-262100-
SOUTHERN LAKE MICHIGAN

STATION/POSITION TIME  TEMP    WIND        PRES    WAVE
                       AIR SEA DIR/SP/G            HT
                 (UTC) (F)     (DEG/KT/KT) (MB)    (FT)
BURNS HARBOR     1940   59     210/ 14/ 22 1010.2F
MICHIGAN CITY    1930   51     230/  6/  8   N/A

$$

INZ004-005-014>016-021>024-262100-
NORTH CENTRAL INDIANA

CITY           SKY/WX    TMP DP  RH WIND       PRES   REMARKS
ELKHART        CLOUDY    59  54  82 SE5       29.83F
GOSHEN         LGT RAIN  60  53  77 S9        29.84F
SOUTH BEND     LGT RAIN  55  32  41 S3        29.84F

$$

INZ006>009-017-018-025>027-262100-
NORTHEAST INDIANA

CITY           SKY/WX    TMP DP  RH WIND       PRES   REMARKS
ANGOLA *+      PTSUNNY   52  52 100 S3        29.86F
FORT WAYNE     CLOUDY    63  55  75 S16       29.86F
KENDALLVILLE + RAIN      53  53  99 SE5       29.87F

$$

INZ028-029-035-036-043>045-051>053-262100-
WEST CENTRAL INDIANA

CITY           SKY/WX    TMP DP  RH WIND       PRES   REMARKS
CRAWFORDSVL +  CLOUDY    57  57 100 S9        29.86F
LAFAYETTE      PTSUNNY   61  52  72 SW8       29.85S
TERRE HAUTE    CLOUDY    60  51  72 SW14      29.87S

$$

INZ030>032-037>040-046>048-054>057-064-065-262100-
CENTRAL INDIANA

CITY           SKY/WX    TMP DP  RH WIND       PRES   REMARKS
COLUMBUS       LGT RAIN  59  59 100 SW9       29.90R
INDIANAPOLIS   LGT RAIN  58  54  86 S13       29.87F
-EAGLE CREEK   LGT RAIN  60  53  77 S9        29.86F
KOKOMO +       MOSUNNY   62  55  77 SW13      29.85F
SHELBYVILLE    LGT RAIN  58  53  84 W8        29.88F

$$

INZ033-034-041-042-049-050-058-059-262100-
EAST CENTRAL INDIANA

CITY           SKY/WX    TMP DP  RH WIND       PRES   REMARKS
MUNCIE         PTSUNNY   63  52  67 SW13      29.87F
RICHMOND +     PTSUNNY   61  54  77 S16       29.90F

$$

INZ060-061-067>069-081>083-085>088-262100-
SOUTHWEST INDIANA

CITY           SKY/WX    TMP DP  RH WIND       PRES   REMARKS
EVANSVILLE     CLOUDY    65  51  60 SW20G26   29.90F
HUNTINGBURG *+ CLOUDY    63  58  83 SW14      29.90F

$$

INZ062-063-066-070>080-084-089>092-262100-
SOUTH CENTRAL AND SOUTHEAST INDIANA

CITY           SKY/WX    TMP DP  RH WIND       PRES   REMARKS
BLOOMINGTON    CLOUDY    60  54  80 SW12G18   29.88F
MADISON *+     PTSUNNY   64  50  59 SW15G22   29.91F

$$





USA.gov is the U.S. government's official web portal to all federal, state and local government web resources and services.